Location: Beneden-Haastrecht
(52.0012°N, 4.7557°E)
Time: 10:09:11
(UTC+00:00)

Cosmos 1354 Rocket - Pass Details

Date: 24 October 2020
Orbit: 764 x 783 km, 74.0° (Epoch: 25 November)

Event Time Altitude Azimuth Distance (km) Brightness Sun altitude
Rises 18:40:58 0° 335° (NNW) 3,247 7.7 -21.2°
Reaches altitude 10° 18:43:23 10° 339° (NNW) 2,318 6.8 -21.5°
Maximum altitude 18:48:37 67° 62° (ENE) 837 3.9 -22.3°
Enters shadow 18:49:38 54° 116° (ESE) 936 4.0 -22.5°
